TimePDT,TemperatureF,Dew PointF,Humidity,Sea Level PressureIn,VisibilityMPH,Wind Direction,Wind SpeedMPH,Gust SpeedMPH,PrecipitationIn,Events,Conditions,WindDirDegrees,DateUTC
12:58 AM,62.4,62.1,99,29.97,10.0,NE,2.3,-,0.00,,Mostly Cloudy,40,2013-08-15 07:58:00
1:58 AM,62.6,61.9,97,29.96,10.0,Calm,Calm,-,N/A,,Overcast,0,2013-08-15 08:58:00
2:08 AM,62.6,62.6,100,29.95,10.0,South,2.3,-,N/A,,Overcast,190,2013-08-15 09:08:00
2:58 AM,62.6,62.2,99,29.96,10.0,SW,1.2,-,N/A,,Overcast,230,2013-08-15 09:58:00
3:06 AM,62.6,62.6,100,29.95,10.0,South,2.3,-,N/A,,Overcast,180,2013-08-15 10:06:00
3:12 AM,62.6,62.6,100,29.95,10.0,South,2.3,-,N/A,,Light Drizzle,190,2013-08-15 10:12:00
3:21 AM,62.6,62.6,100,29.95,10.0,South,1.2,-,N/A,,Overcast,170,2013-08-15 10:21:00
3:58 AM,61.9,61.5,99,29.95,10.0,SSW,2.3,-,0.00,,Overcast,200,2013-08-15 10:58:00
4:58 AM,61.7,61.3,99,29.95,10.0,Calm,Calm,-,N/A,,Overcast,0,2013-08-15 11:58:00
5:58 AM,61.9,61.5,99,29.96,10.0,Calm,Calm,-,N/A,,Overcast,0,2013-08-15 12:58:00
6:58 AM,62.6,62.4,99,29.96,10.0,South,2.3,-,N/A,,Overcast,180,2013-08-15 13:58:00
8:20 AM,64.4,62.6,94,29.97,10.0,SSW,2.3,-,N/A,Rain,Light Rain,200,2013-08-15 15:20:00
8:24 AM,64.4,62.6,94,29.97,8.0,SW,2.3,-,N/A,Rain,Light Rain,220,2013-08-15 15:24:00
8:44 AM,64.4,62.6,94,29.97,4.0,Variable,1.2,-,N/A,,Light Drizzle,0,2013-08-15 15:44:00
8:58 AM,63.7,63.3,99,29.98,10.0,SSE,1.2,-,0.01,,Light Drizzle,160,2013-08-15 15:58:00
9:07 AM,64.4,62.6,94,29.97,6.0,East,1.2,-,N/A,,Light Drizzle,90,2013-08-15 16:07:00
9:12 AM,64.4,64.4,100,29.97,4.0,SE,1.2,-,N/A,,Light Drizzle,130,2013-08-15 16:12:00
9:22 AM,64.4,64.4,100,29.97,7.0,Calm,Calm,-,N/A,,Light Drizzle,0,2013-08-15 16:22:00
9:52 AM,66.2,64.4,94,29.97,10.0,Calm,Calm,-,N/A,,Overcast,0,2013-08-15 16:52:00
9:57 AM,66.2,64.4,94,29.97,10.0,Calm,Calm,-,N/A,,Overcast,0,2013-08-15 16:57:00
9:58 AM,65.8,64.0,94,29.98,10.0,Calm,Calm,-,0.01,,Overcast,0,2013-08-15 16:58:00
10:18 AM,66.2,62.6,88,29.97,10.0,Calm,Calm,-,N/A,,Overcast,0,2013-08-15 17:18:00
10:21 AM,66.2,62.6,88,29.98,10.0,NE,1.2,-,N/A,,Overcast,40,2013-08-15 17:21:00
10:51 AM,66.2,64.4,94,29.98,4.0,ESE,2.3,-,N/A,,Overcast,120,2013-08-15 17:51:00
10:55 AM,66.2,64.4,94,29.98,3.0,ENE,1.2,-,N/A,,Light Drizzle,70,2013-08-15 17:55:00
10:58 AM,66.2,64.4,94,29.99,3.0,Calm,Calm,-,0.00,,Light Drizzle,0,2013-08-15 17:58:00
11:16 AM,66.2,64.4,94,29.98,5.0,South,1.2,-,N/A,,Overcast,190,2013-08-15 18:16:00
11:33 AM,66.2,64.4,94,29.98,3.0,Calm,Calm,-,N/A,,Light Drizzle,0,2013-08-15 18:33:00
11:58 AM,65.5,64.8,98,30.00,3.0,Calm,Calm,-,0.01,,Light Drizzle,0,2013-08-15 18:58:00
12:08 PM,66.2,64.4,94,29.98,2.5,NE,2.3,-,N/A,Rain,Light Rain,50,2013-08-15 19:08:00
12:40 PM,66.2,64.4,94,29.98,5.0,Calm,Calm,-,N/A,,Overcast,0,2013-08-15 19:40:00
12:45 PM,66.2,64.4,94,29.98,6.0,Calm,Calm,-,N/A,,Overcast,0,2013-08-15 19:45:00
12:54 PM,66.2,64.4,94,29.99,7.0,East,1.2,-,N/A,,Overcast,80,2013-08-15 19:54:00
12:58 PM,66.2,66.2,100,29.99,5.0,Variable,1.2,-,0.00,,Overcast,0,2013-08-15 19:58:00
12:59 PM,66.2,66.2,100,29.98,4.0,ESE,1.2,-,N/A,Rain,Light Rain,120,2013-08-15 19:59:00
1:18 PM,66.2,66.2,100,29.99,9.0,South,2.3,-,N/A,,Overcast,190,2013-08-15 20:18:00
1:31 PM,66.2,66.2,100,29.99,10.0,WSW,3.5,-,N/A,Rain,Light Rain,240,2013-08-15 20:31:00
1:33 PM,66.2,66.2,100,29.99,10.0,WSW,2.3,-,N/A,,Light Drizzle,240,2013-08-15 20:33:00
1:44 PM,66.2,66.2,100,29.99,5.0,WNW,5.8,-,N/A,,Drizzle,300,2013-08-15 20:44:00
1:49 PM,66.2,66.2,100,29.99,4.0,NW,4.6,-,N/A,,Drizzle,310,2013-08-15 20:49:00
2:12 PM,66.2,66.2,100,30.00,10.0,Variable,2.3,-,N/A,,Overcast,0,2013-08-15 21:12:00
2:38 PM,66.2,66.2,100,30.00,10.0,WNW,4.6,-,N/A,,Overcast,290,2013-08-15 21:38:00
2:58 PM,66.4,65.1,96,30.00,10.0,East,2.3,-,0.00,,Overcast,90,2013-08-15 21:58:00
3:03 PM,66.2,64.4,94,29.99,10.0,Calm,Calm,-,N/A,,Overcast,0,2013-08-15 22:03:00
3:09 PM,66.2,64.4,94,30.00,10.0,Calm,Calm,-,N/A,,Mostly Cloudy,0,2013-08-15 22:09:00
3:14 PM,66.2,64.4,94,30.00,10.0,Calm,Calm,-,N/A,,Mostly Cloudy,0,2013-08-15 22:14:00
3:19 PM,66.2,64.4,94,30.00,10.0,Calm,Calm,-,N/A,,Mostly Cloudy,0,2013-08-15 22:19:00
3:30 PM,68.0,64.4,88,30.00,10.0,WNW,2.3,-,N/A,,Mostly Cloudy,300,2013-08-15 22:30:00
3:46 PM,68.0,66.2,94,30.01,10.0,WNW,3.5,-,N/A,,Overcast,290,2013-08-15 22:46:00
4:03 PM,68.0,64.4,88,30.00,10.0,Calm,Calm,-,N/A,,Overcast,0,2013-08-15 23:03:00
4:13 PM,68.0,64.4,88,30.00,10.0,NE,1.2,-,N/A,,Overcast,50,2013-08-15 23:13:00
4:58 PM,68.2,64.8,89,30.00,10.0,Calm,Calm,-,N/A,,Overcast,0,2013-08-15 23:58:00
5:22 PM,68.0,64.4,88,29.99,10.0,Calm,Calm,-,N/A,,Mostly Cloudy,0,2013-08-16 00:22:00
5:58 PM,68.4,63.9,85,30.00,10.0,East,1.2,-,0.00,,Overcast,80,2013-08-16 00:58:00
6:58 PM,68.5,64.0,85,29.99,10.0,WNW,2.3,-,N/A,,Overcast,300,2013-08-16 01:58:00
7:50 PM,68.0,64.4,88,29.98,10.0,WNW,2.3,-,N/A,,Mostly Cloudy,290,2013-08-16 02:50:00
7:58 PM,68.2,63.9,86,29.99,10.0,Calm,Calm,-,N/A,,Mostly Cloudy,0,2013-08-16 02:58:00
8:44 PM,66.2,62.6,88,29.99,10.0,Calm,Calm,-,N/A,,Mostly Cloudy,0,2013-08-16 03:44:00
9:49 PM,66.2,62.6,88,30.00,10.0,Calm,Calm,-,N/A,,Mostly Cloudy,0,2013-08-16 04:49:00
9:58 PM,66.6,62.6,87,30.01,10.0,SE,1.2,-,N/A,,Mostly Cloudy,140,2013-08-16 04:58:00
10:48 PM,62.6,62.6,100,30.00,1.5,ESE,1.2,-,N/A,,Partly Cloudy,120,2013-08-16 05:48:00
10:53 PM,62.6,62.6,100,30.00,1.0,Calm,Calm,-,N/A,,Partly Cloudy,0,2013-08-16 05:53:00
10:58 PM,62.6,62.6,100,30.01,2.0,Calm,Calm,-,N/A,,Clear,0,2013-08-16 05:58:00
11:03 PM,62.6,62.6,100,30.00,4.0,Calm,Calm,-,N/A,,Clear,0,2013-08-16 06:03:00
11:08 PM,62.6,62.6,100,30.00,2.0,SSE,2.3,-,N/A,,Clear,150,2013-08-16 06:08:00
11:14 PM,62.6,60.8,94,30.00,1.0,Calm,Calm,-,N/A,,Clear,0,2013-08-16 06:14:00
11:24 PM,62.6,60.8,94,30.00,1.0,Calm,Calm,-,N/A,,Scattered Clouds,0,2013-08-16 06:24:00
11:29 PM,62.6,60.8,94,30.00,1.2,Calm,Calm,-,N/A,,Mostly Cloudy,0,2013-08-16 06:29:00
11:34 PM,62.6,60.8,94,30.00,2.0,Calm,Calm,-,N/A,,Mostly Cloudy,0,2013-08-16 06:34:00
11:39 PM,62.6,62.6,100,30.00,4.0,East,1.2,-,N/A,,Mostly Cloudy,80,2013-08-16 06:39:00
11:58 PM,62.2,61.9,99,30.00,5.0,Calm,Calm,-,N/A,,Mostly Cloudy,0,2013-08-16 06:58:00